Regional Weather Roundup
Issued by NWS

Home | Current Version | Previous Version | Text Only | Print | Product List | Glossary On
Versions: 1 2 3 4 5 6 7 8 9 10 11 12 13 14 15 16 17 18 19 20 21 22 23 24 25 26 27 28 29 30 31 32 33 34 35 36 37 38 39 40 41 42 43 44 45 46 47 48 49 50
000
ASUS43 KDMX 310208
RWRIA

WEATHER ROUNDUP FOR IOWA
NATIONAL WEATHER SERVICE DES MOINES IA
900 PM CDT SAT JUL 30 2016

NOTE: "FAIR" INDICATES FEW OR NO CLOUDS BELOW 12,000 FEET WITH NO
SIGNIFICANT WEATHER AND/OR OBSTRUCTIONS TO VISIBILITY.

* - THESE STATIONS ARE NOT NWS STATIONS...THUS NOT UNDER NWS
QUALITY CONTROL.  THEY ALSO DO NOT REPORT WEATHER SUCH
AS PRECIPITATION OR FOG.

IAZ001>003-012>014-020>022-031>034-043>046-310300-
   NORTHWEST IOWA

CITY           SKY/WX    TMP DP  RH WIND       PRES   REMARKS
CARROLL *      CLEAR     70  66  88 SE3       29.96R
CHEROKEE *     CLEAR     73  65  78 SE6       29.95S
DENISON *      CLEAR     70  66  88 CALM      29.94R
LE MARS *      CLEAR     75  63  64 SE7       29.94S
SHELDON *      CLEAR     70  64  83 SE5       29.94S
SIOUX CITY     CLEAR     74  62  66 S8        29.92F
SPENCER        CLEAR     69  62  78 SE7       29.96F
STORM LAKE *   CLEAR     68  64  88 SE3       29.97S
$$

IAZ055>058-069>071-079>083-090>094-310300-
   SOUTHWEST IOWA

CITY           SKY/WX    TMP DP  RH WIND       PRES   REMARKS
ATLANTIC *     CLEAR     72  66  83 CALM      29.96R
CLARINDA *       N/A     73  66  78 MISG      29.97F
COUNCIL BLFS *   N/A     72  66  83 S6        29.95S
CRESTON *      CLEAR     72  66  83 S3        29.99S
HARLAN  *      CLEAR     72  66  83 CALM      29.99R
LAMONI         CLEAR     74  64  71 CALM      29.97S
RED OAK *      PTCLDY    73  66  78 SE5       29.95S
SHENANDOAH *   CLEAR     72  70  94 SE5       29.95S
$$

IAZ047>049-059>061-072>074-084-310300-
   CENTRAL IOWA

CITY           SKY/WX    TMP DP  RH WIND       PRES   REMARKS
AMES           CLEAR     69  68  96 CALM      29.97R
ANKENY *         N/A    N/A N/A N/A MISG        N/A
BOONE *          N/A     73  66  78 CALM      29.97R
CHARITON *       N/A    N/A N/A N/A MISG        N/A
DES MOINES     PTCLDY    76  66  71 S6        29.96R
GRINNELL*      PTCLDY    72  65  79 CALM      29.99R
KNOXVILLE *    CLEAR     73  66  78 CALM      29.96S
MARSHALLTOWN   PTCLDY    72  67  84 E5        29.97R
NEWTON *       CLEAR     68  68 100 CALM      29.97S
PELLA *        CLEAR     69  66  90 CALM      29.98S
PERRY *          N/A     71  69  95 SE3       29.96S
$$

IAZ004>006-015-016-023>025-035-036-310300-
   NORTH CENTRAL IOWA

CITY           SKY/WX    TMP DP  RH WIND       PRES   REMARKS
ALGONA *       CLEAR     72  66  83 E5        29.98S
ESTHERVILLE    CLEAR     69  65  86 E6        29.97S
FORT DODGE *   CLEAR     70  64  83 CALM      29.97S
MASON CITY     PTCLDY    69  65  86 E6        30.00S
FOREST CITY *  MOCLDY    70  64  83 CALM      29.99S
IOWA FALLS *     N/A     73  67  82 E3        29.99S
$$

IAZ007>011-017>019-026>030-037>042-050>054-066-310300-
   NORTHEAST IOWA

CITY           SKY/WX    TMP DP  RH WIND       PRES   REMARKS
CEDAR RAPIDS   CLEAR     70  70 100 E5        29.97R
CHARLES CITY * CLOUDY    72  70  94 E3        29.99S
CLINTON *      CLEAR     70  67  90 NE7       29.98S
DECORAH *      PTCLDY    70  66  88 E5        30.00R
DUBUQUE          N/A    N/A N/A N/A MISG      30.00S
MONTICELLO *   CLEAR     72  66  83 CALM      29.98S
OELWEIN *      CLEAR     70  64  83 E6        29.99S
WATERLOO       CLEAR     71  66  84 E6        29.96S
$$

IAZ064-065-067-068-078-310300-
   EAST CENTRAL IOWA

CITY           SKY/WX    TMP DP  RH WIND       PRES   REMARKS
DAVENPORT      CLEAR     72  67  84 E7        29.98R
IOWA CITY      CLEAR     74  68  81 CALM      29.99R
MT. PLEASANT * CLEAR     74  69  86 CALM      29.97R
MUSCATINE *    PTCLDY    75  68  78 E5        29.97R
QUAD CITIES    MOCLDY    73  68  84 CALM      29.96R
$$

IAZ062-063-075>077-085>089-095>099-310300-
   SOUTHEAST IOWA

CITY           SKY/WX    TMP DP  RH WIND       PRES   REMARKS
BURLINGTON     PTCLDY    72  70  93 CALM      29.96S
FAIRFIELD *    CLEAR     72  68  88 CALM      29.97R
KEOKUK *       CLEAR     73  68  83 CALM      29.96R
OSKALOOSA *      N/A     72  66  81 CALM      29.98R
CENTERVILLE *    N/A     68  66  94 CALM      29.99R
OTTUMWA        CLEAR     72  65  78 NE3       29.97R
WASHINGTON *   CLEAR     72  68  88 CALM      29.98R
$$

ABBREVIATIONS USED IN REMARKS
   TC - TEMPERATURES IN CELSIUS
  WCI - WIND CHILL INDEX
   HX - HEAT INDEX
  VSB - VISIBILITY
$$





USA.gov is the U.S. government's official web portal to all federal, state and local government web resources and services.